Wetterdaten: Donnerstag, 13.11.2014
Datum Zeit Temperatur Luftfeuchte Luftdruck Regen Wind Richtung Richtung Taupunkt Windchill Windben
13.11.2014 00:00 7,5 C 84 % 1010,4 hPa 0,0 l/m 0,0 km/h (0 Bft) SO 135 5,0 C 7,8 C 0,0 km/h (0 Bft)
13.11.2014 00:05 7,5 C 84 % 1010,4 hPa 0,0 l/m 0,0 km/h (0 Bft) SO 135 5,0 C 7,8 C 0,0 km/h (0 Bft)
13.11.2014 00:08 7,5 C 84 % 1010,4 hPa 0,0 l/m 0,0 km/h (0 Bft) SO 135 5,0 C 7,8 C 0,0 km/h (0 Bft)
13.11.2014 00:10 7,5 C 84 % 1010,4 hPa 0,0 l/m 0,0 km/h (0 Bft) SO 135 5,0 C 7,8 C 0,0 km/h (0 Bft)
13.11.2014 00:15 7,4 C 84 % 1010,7 hPa 0,0 l/m 0,0 km/h (0 Bft) SO 135 4,9 C 7,8 C 0,0 km/h (0 Bft)
13.11.2014 00:20 7,5 C 84 % 1010,7 hPa 0,0 l/m 0,0 km/h (0 Bft) SO 135 5,0 C 7,8 C 0,0 km/h (0 Bft)
13.11.2014 00:25 7,4 C 84 % 1010,7 hPa 0,0 l/m 0,0 km/h (0 Bft) SO 135 4,9 C 7,8 C 0,0 km/h (0 Bft)
13.11.2014 00:30 7,4 C 84 % 1010,7 hPa 0,0 l/m 0,0 km/h (0 Bft) SO 135 4,9 C 7,8 C 0,0 km/h (0 Bft)
13.11.2014 00:35 7,4 C 84 % 1010,9 hPa 0,0 l/m 0,0 km/h (0 Bft) SO 135 4,9 C 7,8 C 0,0 km/h (0 Bft)
13.11.2014 00:40 7,4 C 84 % 1010,9 hPa 0,0 l/m 0,0 km/h (0 Bft) SO 135 4,9 C 7,8 C 0,0 km/h (0 Bft)
13.11.2014 00:45 7,4 C 84 % 1010,9 hPa 0,0 l/m 0,0 km/h (0 Bft) SO 135 4,9 C 7,8 C 0,0 km/h (0 Bft)
13.11.2014 00:50 7,4 C 84 % 1010,9 hPa 0,0 l/m 0,0 km/h (0 Bft) SO 135 4,9 C 7,8 C 0,0 km/h (0 Bft)
13.11.2014 00:55 7,4 C 84 % 1011,1 hPa 0,0 l/m 0,0 km/h (0 Bft) SO 135 4,9 C 7,8 C 0,0 km/h (0 Bft)
13.11.2014 01:00 7,4 C 84 % 1011,1 hPa 0,0 l/m 0,0 km/h (0 Bft) SO 135 4,9 C 7,8 C 0,0 km/h (0 Bft)
13.11.2014 01:05 7,4 C 84 % 1011,1 hPa 0,0 l/m 0,0 km/h (0 Bft) SO 135 4,9 C 7,8 C 0,0 km/h (0 Bft)
13.11.2014 01:10 7,4 C 85 % 1011,1 hPa 0,0 l/m 0,0 km/h (0 Bft) SO 135 5,0 C 7,8 C 0,0 km/h (0 Bft)
13.11.2014 01:15 7,4 C 85 % 1011,3 hPa 0,0 l/m 0,0 km/h (0 Bft) SO 135 5,0 C 7,8 C 0,0 km/h (0 Bft)
13.11.2014 01:20 7,4 C 85 % 1011,3 hPa 0,0 l/m 0,0 km/h (0 Bft) SO 135 5,0 C 7,8 C 0,0 km/h (0 Bft)
13.11.2014 01:25 7,4 C 85 % 1011,3 hPa 0,0 l/m 0,0 km/h (0 Bft) SO 135 5,0 C 7,8 C 0,0 km/h (0 Bft)
13.11.2014 01:30 7,4 C 85 % 1011,3 hPa 0,0 l/m 0,0 km/h (0 Bft) SO 135 5,0 C 7,8 C 0,0 km/h (0 Bft)
13.11.2014 01:35 7,4 C 85 % 1011,3 hPa 0,0 l/m 0,0 km/h (0 Bft) SO 135 5,0 C 7,8 C 0,0 km/h (0 Bft)
13.11.2014 01:40 7,3 C 85 % 1011,3 hPa 0,0 l/m 0,0 km/h (0 Bft) SO 135 4,9 C 7,8 C 0,0 km/h (0 Bft)
13.11.2014 01:45 7,3 C 85 % 1011,3 hPa 0,0 l/m 0,0 km/h (0 Bft) SO 135 4,9 C 7,8 C 0,0 km/h (0 Bft)
13.11.2014 01:50 7,3 C 85 % 1011,3 hPa 0,0 l/m 0,0 km/h (0 Bft) SO 135 4,9 C 7,8 C 0,0 km/h (0 Bft)
13.11.2014 01:55 7,3 C 86 % 1011,3 hPa 0,0 l/m 0,0 km/h (0 Bft) SO 135 5,1 C 7,8 C 0,0 km/h (0 Bft)
13.11.2014 02:00 7,3 C 86 % 1011,3 hPa 0,0 l/m 0,0 km/h (0 Bft) SO 135 5,1 C 7,8 C 0,0 km/h (0 Bft)
13.11.2014 02:05 7,3 C 86 % 1011,3 hPa 0,0 l/m 0,0 km/h (0 Bft) SO 135 5,1 C 7,8 C 0,0 km/h (0 Bft)
13.11.2014 02:10 7,3 C 86 % 1011,3 hPa 0,0 l/m 0,0 km/h (0 Bft) SO 135 5,1 C 7,8 C 0,0 km/h (0 Bft)
13.11.2014 02:15 7,3 C 86 % 1011,6 hPa 0,0 l/m 0,0 km/h (0 Bft) SO 135 5,1 C 7,8 C 0,0 km/h (0 Bft)
13.11.2014 02:20 7,3 C 86 % 1011,6 hPa 0,0 l/m 0,0 km/h (0 Bft) SO 135 5,1 C 7,8 C 0,0 km/h (0 Bft)
13.11.2014 02:25 7,3 C 86 % 1011,6 hPa 0,0 l/m 0,0 km/h (0 Bft) SO 135 5,1 C 7,8 C 0,0 km/h (0 Bft)
13.11.2014 02:30 7,3 C 86 % 1011,6 hPa 0,0 l/m 0,0 km/h (0 Bft) SO 135 5,1 C 7,8 C 0,0 km/h (0 Bft)
13.11.2014 02:35 7,3 C 86 % 1011,6 hPa 0,0 l/m 0,0 km/h (0 Bft) SO 135 5,1 C 7,8 C 0,0 km/h (0 Bft)
13.11.2014 02:40 7,3 C 86 % 1011,6 hPa 0,0 l/m 0,0 km/h (0 Bft) SO 135 5,1 C 7,8 C 0,0 km/h (0 Bft)
13.11.2014 02:45 7,4 C 86 % 1011,6 hPa 0,0 l/m 0,0 km/h (0 Bft) SO 135 5,2 C 7,8 C 0,0 km/h (0 Bft)
13.11.2014 02:50 7,3 C 86 % 1011,6 hPa 0,0 l/m 0,0 km/h (0 Bft) SO 135 5,1 C 7,8 C 0,0 km/h (0 Bft)
13.11.2014 02:55 7,3 C 86 % 1011,9 hPa 0,0 l/m 0,0 km/h (0 Bft) SO 135 5,1 C 7,8 C 0,0 km/h (0 Bft)
13.11.2014 03:00 7,3 C 87 % 1011,9 hPa 0,0 l/m 0,0 km/h (0 Bft) SO 135 5,3 C 7,8 C 0,0 km/h (0 Bft)
13.11.2014 03:05 7,3 C 87 % 1011,9 hPa 0,0 l/m 0,0 km/h (0 Bft) SO 135 5,3 C 7,8 C 0,0 km/h (0 Bft)
13.11.2014 03:08 7,3 C 87 % 1011,9 hPa 0,0 l/m 0,0 km/h (0 Bft) SO 135 5,3 C 7,8 C 0,0 km/h (0 Bft)
13.11.2014 03:10 7,3 C 87 % 1011,9 hPa 0,0 l/m 0,0 km/h (0 Bft) SO 135 5,3 C 7,8 C 0,0 km/h (0 Bft)
13.11.2014 03:15 7,3 C 87 % 1011,8 hPa 0,0 l/m 0,0 km/h (0 Bft) SO 135 5,3 C 7,8 C 0,0 km/h (0 Bft)
13.11.2014 03:20 7,4 C 87 % 1011,8 hPa 0,0 l/m 0,0 km/h (0 Bft) SO 135 5,4 C 7,8 C 0,0 km/h (0 Bft)
13.11.2014 03:25 7,4 C 87 % 1011,8 hPa 0,0 l/m 0,0 km/h (0 Bft) SO 135 5,4 C 7,8 C 0,0 km/h (0 Bft)
13.11.2014 03:30 7,3 C 88 % 1011,8 hPa 0,0 l/m 0,0 km/h (0 Bft) SO 135 5,4 C 7,8 C 0,0 km/h (0 Bft)
13.11.2014 03:35 7,2 C 88 % 1012,1 hPa 0,0 l/m 0,0 km/h (0 Bft) SO 135 5,3 C 7,8 C 0,0 km/h (0 Bft)
13.11.2014 03:40 7,2 C 88 % 1012,1 hPa 0,0 l/m 0,0 km/h (0 Bft) SO 135 5,3 C 7,8 C 0,0 km/h (0 Bft)
13.11.2014 03:45 7,1 C 88 % 1012,1 hPa 0,0 l/m 0,0 km/h (0 Bft) SO 135 5,2 C 7,8 C 0,0 km/h (0 Bft)
13.11.2014 03:50 7,1 C 89 % 1012,1 hPa 0,0 l/m 0,0 km/h (0 Bft) SO 135 5,4 C 7,8 C 0,0 km/h (0 Bft)
13.11.2014 03:55 7,1 C 89 % 1012,1 hPa 0,0 l/m 0,0 km/h (0 Bft) SO 135 5,4 C 7,8 C 0,0 km/h (0 Bft)
13.11.2014 04:00 7,0 C 89 % 1012,1 hPa 0,0 l/m 0,0 km/h (0 Bft) SO 135 5,3 C 7,8 C 0,0 km/h (0 Bft)
13.11.2014 04:05 7,0 C 90 % 1012,1 hPa 0,0 l/m 0,0 km/h (0 Bft) SO 135 5,5 C 7,8 C 0,0 km/h (0 Bft)
13.11.2014 04:10 7,0 C 90 % 1012,1 hPa 0,0 l/m 0,0 km/h (0 Bft) SO 135 5,5 C 7,8 C 0,0 km/h (0 Bft)
13.11.2014 04:15 7,0 C 91 % 1012,3 hPa 0,0 l/m 0,0 km/h (0 Bft) SO 135 5,6 C 7,8 C 0,0 km/h (0 Bft)
13.11.2014 04:20 7,0 C 91 % 1012,3 hPa 0,0 l/m 0,0 km/h (0 Bft) SO 135 5,6 C 7,8 C 0,0 km/h (0 Bft)
13.11.2014 04:25 6,9 C 92 % 1012,3 hPa 0,0 l/m 0,0 km/h (0 Bft) SO 135 5,7 C 7,8 C 0,0 km/h (0 Bft)
13.11.2014 04:30 6,9 C 92 % 1012,3 hPa 0,0 l/m 0,0 km/h (0 Bft) SO 135 5,7 C 7,8 C 0,0 km/h (0 Bft)
13.11.2014 04:35 6,9 C 92 % 1012,3 hPa 0,0 l/m 0,0 km/h (0 Bft) SO 135 5,7 C 7,8 C 0,0 km/h (0 Bft)
13.11.2014 04:40 6,9 C 93 % 1012,3 hPa 0,0 l/m 0,0 km/h (0 Bft) SO 135 5,8 C 7,8 C 0,0 km/h (0 Bft)
13.11.2014 04:45 6,9 C 93 % 1012,3 hPa 0,0 l/m 0,0 km/h (0 Bft) SO 135 5,8 C 7,8 C 0,0 km/h (0 Bft)
13.11.2014 04:50 6,9 C 93 % 1012,3 hPa 0,0 l/m 0,0 km/h (0 Bft) SO 135 5,8 C 7,8 C 0,0 km/h (0 Bft)
13.11.2014 04:55 6,9 C 93 % 1012,6 hPa 0,0 l/m 0,0 km/h (0 Bft) SO 135 5,8 C 7,8 C 0,0 km/h (0 Bft)
13.11.2014 05:00 6,9 C 93 % 1012,6 hPa 0,0 l/m 0,0 km/h (0 Bft) SO 135 5,8 C 7,8 C 0,0 km/h (0 Bft)
13.11.2014 05:05 7,0 C 93 % 1012,6 hPa 0,0 l/m 0,0 km/h (0 Bft) SO 135 5,9 C 7,8 C 0,0 km/h (0 Bft)
13.11.2014 05:10 7,0 C 93 % 1012,6 hPa 0,0 l/m 0,0 km/h (0 Bft) SO 135 5,9 C 7,8 C 0,0 km/h (0 Bft)
13.11.2014 05:15 7,0 C 93 % 1012,8 hPa 0,0 l/m 0,0 km/h (0 Bft) SO 135 5,9 C 7,8 C 0,0 km/h (0 Bft)
13.11.2014 05:20 7,0 C 93 % 1012,8 hPa 0,0 l/m 0,0 km/h (0 Bft) SO 135 5,9 C 7,8 C 0,0 km/h (0 Bft)
13.11.2014 05:25 7,0 C 93 % 1012,8 hPa 0,0 l/m 0,0 km/h (0 Bft) SO 135 5,9 C 7,8 C 0,0 km/h (0 Bft)
13.11.2014 05:30 7,0 C 94 % 1012,8 hPa 0,0 l/m 0,0 km/h (0 Bft) SO 135 6,1 C 7,8 C 0,0 km/h (0 Bft)
13.11.2014 05:35 7,0 C 94 % 1012,8 hPa 0,0 l/m 0,0 km/h (0 Bft) SO 135 6,1 C 7,8 C 0,0 km/h (0 Bft)
13.11.2014 05:40 7,0 C 94 % 1012,8 hPa 0,0 l/m 0,0 km/h (0 Bft) SO 135 6,1 C 7,8 C 0,0 km/h (0 Bft)
13.11.2014 05:45 6,9 C 94 % 1012,8 hPa 0,0 l/m 0,0 km/h (0 Bft) SO 135 6,0 C 7,8 C 0,0 km/h (0 Bft)
13.11.2014 05:50 6,9 C 94 % 1012,8 hPa 0,0 l/m 0,0 km/h (0 Bft) SO 135 6,0 C 7,8 C 0,0 km/h (0 Bft)
13.11.2014 05:55 6,9 C 94 % 1012,8 hPa 0,0 l/m 0,0 km/h (0 Bft) SO 135 6,0 C 7,8 C 0,0 km/h (0 Bft)
13.11.2014 06:00 7,0 C 94 % 1012,8 hPa 0,0 l/m 0,0 km/h (0 Bft) SO 135 6,1 C 7,8 C 0,0 km/h (0 Bft)
13.11.2014 06:05 7,0 C 94 % 1012,8 hPa 0,0 l/m 0,0 km/h (0 Bft) SO 135 6,1 C 7,8 C 0,0 km/h (0 Bft)
13.11.2014 06:08 7,0 C 94 % 1012,8 hPa 0,0 l/m 0,0 km/h (0 Bft) SO 135 6,1 C 7,8 C 0,0 km/h (0 Bft)
13.11.2014 06:10 7,0 C 94 % 1012,8 hPa 0,0 l/m 0,0 km/h (0 Bft) SO 135 6,1 C 7,8 C 0,0 km/h (0 Bft)
13.11.2014 06:15 7,0 C 94 % 1013,2 hPa 0,0 l/m 0,0 km/h (0 Bft) SO 135 6,1 C 7,8 C 0,0 km/h (0 Bft)
13.11.2014 06:20 7,0 C 94 % 1013,2 hPa 0,0 l/m 0,0 km/h (0 Bft) SO 135 6,1 C 7,8 C 0,0 km/h (0 Bft)
13.11.2014 06:25 7,0 C 94 % 1013,2 hPa 0,0 l/m 0,0 km/h (0 Bft) SO 135 6,1 C 7,8 C 0,0 km/h (0 Bft)
13.11.2014 06:30 7,0 C 94 % 1013,2 hPa 0,0 l/m 0,0 km/h (0 Bft) SO 135 6,1 C 7,8 C 0,0 km/h (0 Bft)
13.11.2014 06:35 7,0 C 94 % 1013,2 hPa 0,0 l/m 0,0 km/h (0 Bft) SO 135 6,1 C 7,8 C 0,0 km/h (0 Bft)
13.11.2014 06:40 7,0 C 94 % 1013,2 hPa 0,0 l/m 0,0 km/h (0 Bft) SO 135 6,1 C 7,8 C 0,0 km/h (0 Bft)
13.11.2014 06:45 7,0 C 94 % 1013,2 hPa 0,0 l/m 0,0 km/h (0 Bft) SO 135 6,1 C 7,8 C 0,0 km/h (0 Bft)
13.11.2014 06:50 7,0 C 94 % 1013,2 hPa 0,0 l/m 0,0 km/h (0 Bft) SO 135 6,1 C 7,8 C 0,0 km/h (0 Bft)
13.11.2014 06:55 7,0 C 94 % 1013,4 hPa 0,0 l/m 0,0 km/h (0 Bft) SO 135 6,1 C 7,8 C 0,0 km/h (0 Bft)
13.11.2014 07:00 7,0 C 94 % 1013,4 hPa 0,0 l/m 0,0 km/h (0 Bft) SO 135 6,1 C 7,8 C 0,0 km/h (0 Bft)
13.11.2014 07:05 7,0 C 94 % 1013,4 hPa 0,0 l/m 0,0 km/h (0 Bft) SO 135 6,1 C 7,8 C 0,0 km/h (0 Bft)
13.11.2014 07:10 7,0 C 94 % 1013,4 hPa 0,0 l/m 0,0 km/h (0 Bft) SO 135 6,1 C 7,8 C 0,0 km/h (0 Bft)
13.11.2014 07:15 7,0 C 94 % 1013,4 hPa 0,0 l/m 0,0 km/h (0 Bft) SO 135 6,1 C 7,8 C 0,0 km/h (0 Bft)
13.11.2014 07:20 7,0 C 94 % 1013,4 hPa 0,0 l/m 0,0 km/h (0 Bft) SO 135 6,1 C 7,8 C 0,0 km/h (0 Bft)
13.11.2014 07:25 7,0 C 94 % 1013,4 hPa 0,0 l/m 0,0 km/h (0 Bft) SO 135 6,1 C 7,8 C 0,0 km/h (0 Bft)
13.11.2014 07:30 7,1 C 94 % 1013,4 hPa 0,0 l/m 0,0 km/h (0 Bft) SO 135 6,2 C 7,8 C 0,0 km/h (0 Bft)
13.11.2014 07:35 7,1 C 94 % 1013,5 hPa 0,0 l/m 0,0 km/h (0 Bft) SO 135 6,2 C 7,8 C 0,0 km/h (0 Bft)
13.11.2014 07:40 7,1 C 94 % 1013,5 hPa 0,0 l/m 0,0 km/h (0 Bft) SO 135 6,2 C 7,8 C 0,0 km/h (0 Bft)
13.11.2014 07:45 7,1 C 94 % 1013,5 hPa 0,0 l/m 0,0 km/h (0 Bft) SO 135 6,2 C 7,8 C 0,0 km/h (0 Bft)
13.11.2014 07:50 7,1 C 94 % 1013,5 hPa 0,0 l/m 0,0 km/h (0 Bft) SO 135 6,2 C 7,8 C 0,0 km/h (0 Bft)
13.11.2014 07:55 7,1 C 95 % 1013,7 hPa 0,0 l/m 0,0 km/h (0 Bft) SO 135 6,4 C 7,8 C 0,0 km/h (0 Bft)
13.11.2014 08:00 7,1 C 95 % 1013,7 hPa 0,0 l/m 0,0 km/h (0 Bft) SO 135 6,4 C 7,8 C 0,0 km/h (0 Bft)
13.11.2014 08:05 7,2 C 95 % 1013,7 hPa 0,0 l/m 0,0 km/h (0 Bft) SO 135 6,5 C 7,8 C 0,0 km/h (0 Bft)
13.11.2014 08:10 7,2 C 95 % 1013,7 hPa 0,0 l/m 0,0 km/h (0 Bft) SO 135 6,5 C 7,8 C 0,0 km/h (0 Bft)
13.11.2014 08:15 7,2 C 95 % 1013,8 hPa 0,0 l/m 0,0 km/h (0 Bft) SO 135 6,5 C 7,8 C 0,0 km/h (0 Bft)
13.11.2014 08:20 7,2 C 95 % 1013,8 hPa 0,0 l/m 0,0 km/h (0 Bft) SO 135 6,5 C 7,8 C 0,0 km/h (0 Bft)
13.11.2014 08:25 7,3 C 95 % 1013,8 hPa 0,0 l/m 0,0 km/h (0 Bft) SO 135 6,6 C 7,8 C 0,0 km/h (0 Bft)
13.11.2014 08:30 7,3 C 95 % 1013,8 hPa 0,0 l/m 0,0 km/h (0 Bft) SO 135 6,6 C 7,8 C 0,0 km/h (0 Bft)
13.11.2014 08:35 7,3 C 95 % 1013,8 hPa 0,0 l/m 0,0 km/h (0 Bft) SO 135 6,6 C 7,8 C 0,0 km/h (0 Bft)
13.11.2014 08:40 7,3 C 95 % 1013,8 hPa 0,0 l/m 0,0 km/h (0 Bft) SO 135 6,6 C 7,8 C 0,0 km/h (0 Bft)
13.11.2014 08:45 7,3 C 95 % 1013,8 hPa 0,0 l/m 0,0 km/h (0 Bft) SO 135 6,6 C 7,8 C 0,0 km/h (0 Bft)
13.11.2014 08:50 7,4 C 95 % 1013,8 hPa 0,0 l/m 0,0 km/h (0 Bft) SO 135 6,7 C 7,8 C 0,0 km/h (0 Bft)
13.11.2014 08:55 7,4 C 95 % 1013,8 hPa 0,0 l/m 0,0 km/h (0 Bft) SO 135 6,7 C 7,8 C 0,0 km/h (0 Bft)
13.11.2014 09:00 7,5 C 95 % 1013,8 hPa 0,0 l/m 0,0 km/h (0 Bft) SO 135 6,8 C 7,8 C 0,0 km/h (0 Bft)
13.11.2014 09:05 7,5 C 95 % 1013,8 hPa 0,0 l/m 0,0 km/h (0 Bft) SO 135 6,8 C 7,8 C 0,0 km/h (0 Bft)
13.11.2014 09:10 7,5 C 95 % 1013,8 hPa 0,0 l/m 0,0 km/h (0 Bft) SO 135 6,8 C 7,8 C 0,0 km/h (0 Bft)
13.11.2014 09:15 7,6 C 95 % 1013,8 hPa 0,0 l/m 0,0 km/h (0 Bft) SO 135 6,9 C 7,8 C 0,0 km/h (0 Bft)
13.11.2014 09:20 7,7 C 95 % 1013,8 hPa 0,0 l/m 0,0 km/h (0 Bft) SO 135 7,0 C 7,8 C 0,0 km/h (0 Bft)
13.11.2014 09:25 7,7 C 95 % 1013,8 hPa 0,0 l/m 0,0 km/h (0 Bft) SO 135 7,0 C 7,8 C 0,0 km/h (0 Bft)
13.11.2014 09:30 7,9 C 95 % 1013,8 hPa 0,0 l/m 0,0 km/h (0 Bft) SO 135 7,1 C 7,8 C 0,0 km/h (0 Bft)
13.11.2014 09:35 8,1 C 94 % 1013,9 hPa 0,0 l/m 0,0 km/h (0 Bft) SO 135 7,2 C 7,8 C 0,0 km/h (0 Bft)
13.11.2014 09:40 8,2 C 94 % 1013,9 hPa 0,0 l/m 0,0 km/h (0 Bft) SO 135 7,3 C 7,8 C 0,0 km/h (0 Bft)
13.11.2014 09:45 8,4 C 94 % 1013,9 hPa 0,0 l/m 0,0 km/h (0 Bft) SO 135 7,5 C 7,8 C 0,0 km/h (0 Bft)
13.11.2014 09:50 8,5 C 94 % 1013,9 hPa 0,0 l/m 0,0 km/h (0 Bft) SO 135 7,6 C 7,8 C 0,0 km/h (0 Bft)
13.11.2014 09:55 8,5 C 94 % 1014,0 hPa 0,0 l/m 0,0 km/h (0 Bft) SO 135 7,6 C 7,8 C 0,0 km/h (0 Bft)
13.11.2014 10:00 8,5 C 94 % 1014,0 hPa 0,0 l/m 0,0 km/h (0 Bft) SO 135 7,6 C 7,8 C 0,0 km/h (0 Bft)
13.11.2014 10:05 8,5 C 94 % 1014,0 hPa 0,0 l/m 0,0 km/h (0 Bft) SO 135 7,6 C 7,8 C 0,0 km/h (0 Bft)
13.11.2014 10:10 8,7 C 94 % 1014,0 hPa 0,0 l/m 0,0 km/h (0 Bft) SO 135 7,8 C 7,8 C 0,0 km/h (0 Bft)
13.11.2014 10:15 8,8 C 94 % 1013,9 hPa 0,0 l/m 0,0 km/h (0 Bft) SO 135 7,9 C 7,8 C 0,0 km/h (0 Bft)
13.11.2014 10:20 9,1 C 94 % 1013,9 hPa 0,0 l/m 0,0 km/h (0 Bft) SO 135 8,2 C 7,8 C 0,0 km/h (0 Bft)
13.11.2014 10:25 9,3 C 94 % 1013,9 hPa 0,0 l/m 0,0 km/h (0 Bft) SO 135 8,4 C 7,8 C 0,0 km/h (0 Bft)
13.11.2014 10:30 9,4 C 93 % 1013,9 hPa 0,0 l/m 0,0 km/h (0 Bft) SO 135 8,3 C 7,8 C 0,0 km/h (0 Bft)
13.11.2014 10:35 9,8 C 93 % 1013,9 hPa 0,0 l/m 0,0 km/h (0 Bft) SO 135 8,7 C 7,8 C 0,0 km/h (0 Bft)
13.11.2014 10:40 9,9 C 93 % 1013,9 hPa 0,0 l/m 0,0 km/h (0 Bft) SO 135 8,8 C 7,8 C 0,0 km/h (0 Bft)
13.11.2014 10:45 9,8 C 92 % 1013,9 hPa 0,0 l/m 0,0 km/h (0 Bft) SO 135 8,6 C 7,8 C 0,0 km/h (0 Bft)
13.11.2014 10:50 9,5 C 92 % 1013,9 hPa 0,0 l/m 0,0 km/h (0 Bft) SO 135 8,3 C 7,8 C 0,0 km/h (0 Bft)
13.11.2014 10:55 9,3 C 91 % 1014,1 hPa 0,0 l/m 0,0 km/h (0 Bft) SO 135 7,9 C 7,8 C 0,0 km/h (0 Bft)
13.11.2014 11:00 9,3 C 91 % 1014,1 hPa 0,0 l/m 0,0 km/h (0 Bft) SO 135 7,9 C 7,8 C 0,0 km/h (0 Bft)
13.11.2014 11:05 9,4 C 90 % 1014,1 hPa 0,0 l/m 0,0 km/h (0 Bft) SO 135 7,8 C 7,8 C 0,0 km/h (0 Bft)
13.11.2014 11:10 9,7 C 89 % 1014,1 hPa 0,0 l/m 0,0 km/h (0 Bft) SO 135 8,0 C 7,8 C 0,0 km/h (0 Bft)
13.11.2014 11:15 10,0 C 88 % 1014,1 hPa 0,0 l/m 0,0 km/h (0 Bft) SO 135 8,1 C 7,8 C 0,0 km/h (0 Bft)
13.11.2014 11:20 10,2 C 88 % 1014,1 hPa 0,0 l/m 0,0 km/h (0 Bft) SO 135 8,3 C 7,8 C 0,0 km/h (0 Bft)
13.11.2014 11:25 10,2 C 87 % 1014,1 hPa 0,0 l/m 0,0 km/h (0 Bft) SO 135 8,1 C 7,8 C 0,0 km/h (0 Bft)
13.11.2014 11:30 10,2 C 86 % 1014,1 hPa 0,0 l/m 0,0 km/h (0 Bft) SO 135 8,0 C 7,8 C 0,0 km/h (0 Bft)
13.11.2014 11:35 10,4 C 87 % 1014,2 hPa 0,0 l/m 0,0 km/h (0 Bft) SO 135 8,3 C 7,8 C 0,0 km/h (0 Bft)
13.11.2014 11:40 10,3 C 87 % 1014,2 hPa 0,0 l/m 0,0 km/h (0 Bft) SO 135 8,2 C 7,8 C 0,0 km/h (0 Bft)
13.11.2014 11:45 10,4 C 87 % 1014,2 hPa 0,0 l/m 0,0 km/h (0 Bft) SO 135 8,3 C 7,8 C 0,0 km/h (0 Bft)
13.11.2014 11:50 10,2 C 85 % 1014,2 hPa 0,0 l/m 0,0 km/h (0 Bft) SO 135 7,8 C 7,8 C 0,0 km/h (0 Bft)
13.11.2014 11:55 10,1 C 86 % 1014,4 hPa 0,0 l/m 0,0 km/h (0 Bft) SO 135 7,9 C 7,8 C 0,0 km/h (0 Bft)
13.11.2014 12:00 9,8 C 87 % 1014,4 hPa 0,0 l/m 0,0 km/h (0 Bft) SO 135 7,7 C 7,8 C 0,0 km/h (0 Bft)
13.11.2014 12:03 9,8 C 87 % 1014,4 hPa 0,0 l/m 0,0 km/h (0 Bft) SO 135 7,7 C 7,8 C 0,0 km/h (0 Bft)
13.11.2014 12:05 9,8 C 87 % 1014,4 hPa 0,0 l/m 0,0 km/h (0 Bft) SO 135 7,7 C 7,8 C 0,0 km/h (0 Bft)
13.11.2014 12:10 10,1 C 88 % 1014,4 hPa 0,0 l/m 0,0 km/h (0 Bft) SO 135 8,2 C 7,8 C 0,0 km/h (0 Bft)
13.11.2014 12:15 10,3 C 88 % 1014,3 hPa 0,0 l/m 0,0 km/h (0 Bft) SO 135 8,4 C 7,8 C 0,0 km/h (0 Bft)
13.11.2014 12:20 10,6 C 88 % 1014,3 hPa 0,0 l/m 0,0 km/h (0 Bft) SO 135 8,7 C 7,8 C 0,0 km/h (0 Bft)
13.11.2014 12:25 10,6 C 88 % 1014,3 hPa 0,0 l/m 0,0 km/h (0 Bft) SO 135 8,7 C 7,8 C 0,0 km/h (0 Bft)
13.11.2014 12:30 10,4 C 88 % 1014,3 hPa 0,0 l/m 0,0 km/h (0 Bft) SO 135 8,5 C 7,8 C 0,0 km/h (0 Bft)
13.11.2014 12:35 10,3 C 88 % 1014,3 hPa 0,0 l/m 0,0 km/h (0 Bft) SO 135 8,4 C 7,8 C 0,0 km/h (0 Bft)
13.11.2014 12:40 10,1 C 87 % 1014,3 hPa 0,0 l/m 0,0 km/h (0 Bft) SO 135 8,0 C 7,8 C 0,0 km/h (0 Bft)
13.11.2014 12:45 10,1 C 88 % 1014,3 hPa 0,0 l/m 0,0 km/h (0 Bft) SO 135 8,2 C 7,8 C 0,0 km/h (0 Bft)
13.11.2014 12:50 10,0 C 88 % 1014,3 hPa 0,0 l/m 0,0 km/h (0 Bft) SO 135 8,1 C 7,8 C 0,0 km/h (0 Bft)
13.11.2014 12:55 10,1 C 88 % 1014,4 hPa 0,0 l/m 0,0 km/h (0 Bft) SO 135 8,2 C 7,8 C 0,0 km/h (0 Bft)
13.11.2014 13:00 10,1 C 88 % 1014,4 hPa 0,0 l/m 0,0 km/h (0 Bft) SO 135 8,2 C 7,8 C 0,0 km/h (0 Bft)
13.11.2014 13:05 10,1 C 88 % 1014,4 hPa 0,0 l/m 0,0 km/h (0 Bft) SO 135 8,2 C 7,8 C 0,0 km/h (0 Bft)
13.11.2014 13:10 10,2 C 88 % 1014,4 hPa 0,0 l/m 0,0 km/h (0 Bft) SO 135 8,3 C 7,8 C 0,0 km/h (0 Bft)
13.11.2014 13:15 10,2 C 88 % 1014,3 hPa 0,0 l/m 0,0 km/h (0 Bft) SO 135 8,3 C 7,8 C 0,0 km/h (0 Bft)
13.11.2014 13:20 10,1 C 87 % 1014,3 hPa 0,0 l/m 0,0 km/h (0 Bft) SO 135 8,0 C 7,8 C 0,0 km/h (0 Bft)
13.11.2014 13:25 10,0 C 88 % 1014,3 hPa 0,0 l/m 0,0 km/h (0 Bft) SO 135 8,1 C 7,8 C 0,0 km/h (0 Bft)
13.11.2014 13:30 9,9 C 88 % 1014,3 hPa 0,0 l/m 0,0 km/h (0 Bft) SO 135 8,0 C 7,8 C 0,0 km/h (0 Bft)
13.11.2014 13:35 9,7 C 87 % 1014,6 hPa 0,0 l/m 0,0 km/h (0 Bft) SO 135 7,6 C 7,8 C 0,0 km/h (0 Bft)
13.11.2014 13:40 9,5 C 87 % 1014,6 hPa 0,0 l/m 0,0 km/h (0 Bft) SO 135 7,4 C 7,8 C 0,0 km/h (0 Bft)
13.11.2014 13:45 9,5 C 87 % 1014,6 hPa 0,0 l/m 0,0 km/h (0 Bft) SO 135 7,4 C 7,8 C 0,0 km/h (0 Bft)
13.11.2014 13:50 9,5 C 87 % 1014,6 hPa 0,0 l/m 0,0 km/h (0 Bft) SO 135 7,4 C 7,8 C 0,0 km/h (0 Bft)
13.11.2014 13:55 9,5 C 87 % 1014,5 hPa 0,0 l/m 0,0 km/h (0 Bft) SO 135 7,4 C 7,8 C 0,0 km/h (0 Bft)
13.11.2014 14:00 9,4 C 87 % 1014,5 hPa 0,0 l/m 0,0 km/h (0 Bft) SO 135 7,3 C 7,8 C 0,0 km/h (0 Bft)
13.11.2014 14:05 9,3 C 87 % 1014,5 hPa 0,0 l/m 0,0 km/h (0 Bft) SO 135 7,2 C 7,8 C 0,0 km/h (0 Bft)
13.11.2014 14:10 9,3 C 87 % 1014,5 hPa 0,0 l/m 0,0 km/h (0 Bft) SO 135 7,2 C 7,8 C 0,0 km/h (0 Bft)
13.11.2014 14:15 9,2 C 88 % 1014,4 hPa 0,0 l/m 0,0 km/h (0 Bft) SO 135 7,3 C 7,8 C 0,0 km/h (0 Bft)
13.11.2014 14:20 9,1 C 87 % 1014,4 hPa 0,0 l/m 0,0 km/h (0 Bft) SO 135 7,1 C 7,8 C 0,0 km/h (0 Bft)
13.11.2014 14:25 9,0 C 87 % 1014,4 hPa 0,0 l/m 0,0 km/h (0 Bft) SO 135 7,0 C 7,8 C 0,0 km/h (0 Bft)
13.11.2014 14:30 9,0 C 88 % 1014,4 hPa 0,0 l/m 0,0 km/h (0 Bft) SO 135 7,1 C 7,8 C 0,0 km/h (0 Bft)
13.11.2014 14:35 9,0 C 88 % 1014,3 hPa 0,0 l/m 0,0 km/h (0 Bft) SO 135 7,1 C 7,8 C 0,0 km/h (0 Bft)
13.11.2014 14:40 8,9 C 88 % 1014,3 hPa 0,0 l/m 0,0 km/h (0 Bft) SO 135 7,0 C 7,8 C 0,0 km/h (0 Bft)
13.11.2014 14:45 8,9 C 88 % 1014,3 hPa 0,0 l/m 0,0 km/h (0 Bft) SO 135 7,0 C 7,8 C 0,0 km/h (0 Bft)
13.11.2014 14:50 8,8 C 88 % 1014,3 hPa 0,0 l/m 0,0 km/h (0 Bft) SO 135 6,9 C 7,8 C 0,0 km/h (0 Bft)
13.11.2014 14:55 8,8 C 88 % 1014,3 hPa 0,0 l/m 0,0 km/h (0 Bft) SO 135 6,9 C 7,8 C 0,0 km/h (0 Bft)
13.11.2014 15:00 8,7 C 88 % 1014,3 hPa 0,0 l/m 0,0 km/h (0 Bft) SO 135 6,8 C 7,8 C 0,0 km/h (0 Bft)
13.11.2014 15:03 8,6 C 88 % 1014,3 hPa 0,0 l/m 0,0 km/h (0 Bft) SO 135 6,7 C 7,8 C 0,0 km/h (0 Bft)
13.11.2014 15:10 8,5 C 88 % 1014,3 hPa 0,0 l/m 0,0 km/h (0 Bft) SO 135 6,6 C 7,8 C 0,0 km/h (0 Bft)
13.11.2014 15:15 8,5 C 88 % 1014,2 hPa 0,0 l/m 0,0 km/h (0 Bft) SO 135 6,6 C 7,8 C 0,0 km/h (0 Bft)
13.11.2014 15:20 8,4 C 89 % 1014,2 hPa 0,0 l/m 0,0 km/h (0 Bft) SO 135 6,7 C 7,8 C 0,0 km/h (0 Bft)
13.11.2014 15:25 8,3 C 89 % 1014,2 hPa 0,0 l/m 0,0 km/h (0 Bft) SO 135 6,6 C 7,8 C 0,0 km/h (0 Bft)
13.11.2014 15:30 8,3 C 89 % 1014,2 hPa 0,0 l/m 0,0 km/h (0 Bft) SO 135 6,6 C 7,8 C 0,0 km/h (0 Bft)
13.11.2014 15:35 8,2 C 89 % 1014,4 hPa 0,0 l/m 0,0 km/h (0 Bft) SO 135 6,5 C 7,8 C 0,0 km/h (0 Bft)
13.11.2014 15:40 8,2 C 89 % 1014,4 hPa 0,0 l/m 0,0 km/h (0 Bft) SO 135 6,5 C 7,8 C 0,0 km/h (0 Bft)
13.11.2014 15:45 8,1 C 89 % 1014,4 hPa 0,0 l/m 0,0 km/h (0 Bft) SO 135 6,4 C 7,8 C 0,0 km/h (0 Bft)
13.11.2014 15:50 8,1 C 89 % 1014,4 hPa 0,0 l/m 0,0 km/h (0 Bft) SO 135 6,4 C 7,8 C 0,0 km/h (0 Bft)
13.11.2014 15:55 8,1 C 89 % 1014,4 hPa 0,0 l/m 0,0 km/h (0 Bft) SO 135 6,4 C 7,8 C 0,0 km/h (0 Bft)
13.11.2014 16:00 8,0 C 89 % 1014,4 hPa 0,0 l/m 0,0 km/h (0 Bft) SO 135 6,3 C 7,8 C 0,0 km/h (0 Bft)
13.11.2014 16:05 8,0 C 89 % 1014,4 hPa 0,0 l/m 0,0 km/h (0 Bft) SO 135 6,3 C 7,8 C 0,0 km/h (0 Bft)
13.11.2014 16:10 7,9 C 89 % 1014,4 hPa 0,0 l/m 0,0 km/h (0 Bft) SO 135 6,2 C 7,8 C 0,0 km/h (0 Bft)
13.11.2014 16:15 7,9 C 89 % 1014,4 hPa 0,0 l/m 0,0 km/h (0 Bft) SO 135 6,2 C 7,8 C 0,0 km/h (0 Bft)
13.11.2014 16:20 7,9 C 89 % 1014,4 hPa 0,0 l/m 0,0 km/h (0 Bft) SO 135 6,2 C 7,8 C 0,0 km/h (0 Bft)
13.11.2014 16:25 7,9 C 89 % 1014,4 hPa 0,0 l/m 0,0 km/h (0 Bft) SO 135 6,2 C 7,8 C 0,0 km/h (0 Bft)
13.11.2014 16:30 7,9 C 89 % 1014,4 hPa 0,0 l/m 0,0 km/h (0 Bft) SO 135 6,2 C 7,8 C 0,0 km/h (0 Bft)
13.11.2014 16:35 7,8 C 89 % 1014,3 hPa 0,0 l/m 0,0 km/h (0 Bft) SO 135 6,1 C 7,8 C 0,0 km/h (0 Bft)
13.11.2014 16:40 7,8 C 89 % 1014,3 hPa 0,0 l/m 0,0 km/h (0 Bft) SO 135 6,1 C 7,8 C 0,0 km/h (0 Bft)
13.11.2014 16:45 7,8 C 89 % 1014,3 hPa 0,0 l/m 0,0 km/h (0 Bft) SO 135 6,1 C 7,8 C 0,0 km/h (0 Bft)
13.11.2014 16:50 7,7 C 90 % 1014,3 hPa 0,0 l/m 0,0 km/h (0 Bft) SO 135 6,2 C 7,8 C 0,0 km/h (0 Bft)
13.11.2014 16:55 7,7 C 90 % 1014,4 hPa 0,0 l/m 0,0 km/h (0 Bft) SO 135 6,2 C 7,8 C 0,0 km/h (0 Bft)
13.11.2014 17:00 7,7 C 90 % 1014,4 hPa 0,0 l/m 0,0 km/h (0 Bft) SO 135 6,2 C 7,8 C 0,0 km/h (0 Bft)
13.11.2014 17:05 7,7 C 90 % 1014,4 hPa 0,0 l/m 0,0 km/h (0 Bft) SO 135 6,2 C 7,8 C 0,0 km/h (0 Bft)
13.11.2014 17:10 7,7 C 90 % 1014,4 hPa 0,0 l/m 0,0 km/h (0 Bft) SO 135 6,2 C 7,8 C 0,0 km/h (0 Bft)
13.11.2014 17:15 7,6 C 90 % 1014,3 hPa 0,0 l/m 0,0 km/h (0 Bft) SO 135 6,1 C 7,8 C 0,0 km/h (0 Bft)
13.11.2014 17:20 7,6 C 90 % 1014,3 hPa 0,0 l/m 0,0 km/h (0 Bft) SO 135 6,1 C 7,8 C 0,0 km/h (0 Bft)
13.11.2014 17:25 7,6 C 90 % 1014,3 hPa 0,0 l/m 0,0 km/h (0 Bft) SO 135 6,1 C 7,8 C 0,0 km/h (0 Bft)
13.11.2014 17:30 7,6 C 90 % 1014,3 hPa 0,0 l/m 0,0 km/h (0 Bft) SO 135 6,1 C 7,8 C 0,0 km/h (0 Bft)
13.11.2014 17:35 7,6 C 90 % 1014,5 hPa 0,0 l/m 0,0 km/h (0 Bft) SO 135 6,1 C 7,8 C 0,0 km/h (0 Bft)
13.11.2014 17:40 7,6 C 90 % 1014,5 hPa 0,0 l/m 0,0 km/h (0 Bft) SO 135 6,1 C 7,8 C 0,0 km/h (0 Bft)
13.11.2014 17:45 7,6 C 90 % 1014,5 hPa 0,0 l/m 0,0 km/h (0 Bft) SO 135 6,1 C 7,8 C 0,0 km/h (0 Bft)
13.11.2014 17:50 7,6 C 90 % 1014,5 hPa 0,0 l/m 0,0 km/h (0 Bft) SO 135 6,1 C 7,8 C 0,0 km/h (0 Bft)
13.11.2014 17:55 7,5 C 90 % 1014,4 hPa 0,0 l/m 0,0 km/h (0 Bft) SO 135 6,0 C 7,8 C 0,0 km/h (0 Bft)
13.11.2014 18:00 7,5 C 90 % 1014,4 hPa 0,0 l/m 0,0 km/h (0 Bft) SO 135 6,0 C 7,8 C 0,0 km/h (0 Bft)
13.11.2014 18:03 7,5 C 91 % 1014,4 hPa 0,0 l/m 0,0 km/h (0 Bft) SO 135 6,1 C 7,8 C 0,0 km/h (0 Bft)
13.11.2014 18:05 7,5 C 91 % 1014,4 hPa 0,0 l/m 0,0 km/h (0 Bft) SO 135 6,1 C 7,8 C 0,0 km/h (0 Bft)
13.11.2014 18:10 7,5 C 91 % 1014,4 hPa 0,0 l/m 0,0 km/h (0 Bft) SO 135 6,1 C 7,8 C 0,0 km/h (0 Bft)
13.11.2014 18:15 7,5 C 91 % 1014,4 hPa 0,0 l/m 0,0 km/h (0 Bft) SO 135 6,1 C 7,8 C 0,0 km/h (0 Bft)
13.11.2014 18:20 7,5 C 91 % 1014,4 hPa 0,0 l/m 0,0 km/h (0 Bft) SO 135 6,1 C 7,8 C 0,0 km/h (0 Bft)
13.11.2014 18:25 7,5 C 91 % 1014,4 hPa 0,0 l/m 0,0 km/h (0 Bft) SO 135 6,1 C 7,8 C 0,0 km/h (0 Bft)
13.11.2014 18:30 7,5 C 91 % 1014,4 hPa 0,0 l/m 0,0 km/h (0 Bft) SO 135 6,1 C 7,8 C 0,0 km/h (0 Bft)
13.11.2014 18:35 7,5 C 91 % 1014,4 hPa 0,0 l/m 0,0 km/h (0 Bft) SO 135 6,1 C 7,8 C 0,0 km/h (0 Bft)
13.11.2014 18:40 7,5 C 91 % 1014,4 hPa 0,0 l/m 0,0 km/h (0 Bft) SO 135 6,1 C 7,8 C 0,0 km/h (0 Bft)
13.11.2014 18:45 7,6 C 91 % 1014,4 hPa 0,0 l/m 0,0 km/h (0 Bft) SO 135 6,2 C 7,8 C 0,0 km/h (0 Bft)
13.11.2014 18:50 7,6 C 92 % 1014,4 hPa 0,0 l/m 0,0 km/h (0 Bft) SO 135 6,4 C 7,8 C 0,0 km/h (0 Bft)
13.11.2014 18:55 7,6 C 92 % 1014,4 hPa 0,0 l/m 0,0 km/h (0 Bft) SO 135 6,4 C 7,8 C 0,0 km/h (0 Bft)
13.11.2014 19:00 7,6 C 92 % 1014,4 hPa 0,0 l/m 0,0 km/h (0 Bft) SO 135 6,4 C 7,8 C 0,0 km/h (0 Bft)
13.11.2014 19:05 7,6 C 92 % 1014,4 hPa 0,0 l/m 0,0 km/h (0 Bft) SO 135 6,4 C 7,8 C 0,0 km/h (0 Bft)
13.11.2014 19:10 7,6 C 92 % 1014,4 hPa 0,0 l/m 0,0 km/h (0 Bft) SO 135 6,4 C 7,8 C 0,0 km/h (0 Bft)
13.11.2014 19:15 7,6 C 92 % 1014,2 hPa 0,0 l/m 0,0 km/h (0 Bft) SO 135 6,4 C 7,8 C 0,0 km/h (0 Bft)
13.11.2014 19:20 7,6 C 92 % 1014,2 hPa 0,0 l/m 0,0 km/h (0 Bft) SO 135 6,4 C 7,8 C 0,0 km/h (0 Bft)
13.11.2014 19:25 7,6 C 92 % 1014,2 hPa 0,0 l/m 0,0 km/h (0 Bft) SO 135 6,4 C 7,8 C 0,0 km/h (0 Bft)
13.11.2014 19:30 7,6 C 92 % 1014,2 hPa 0,0 l/m 0,0 km/h (0 Bft) SO 135 6,4 C 7,8 C 0,0 km/h (0 Bft)
13.11.2014 19:35 7,6 C 92 % 1014,4 hPa 0,0 l/m 0,0 km/h (0 Bft) SO 135 6,4 C 7,8 C 0,0 km/h (0 Bft)
13.11.2014 19:40 7,6 C 92 % 1014,4 hPa 0,0 l/m 0,0 km/h (0 Bft) SO 135 6,4 C 7,8 C 0,0 km/h (0 Bft)
13.11.2014 19:45 7,6 C 92 % 1014,4 hPa 0,0 l/m 0,0 km/h (0 Bft) SO 135 6,4 C 7,8 C 0,0 km/h (0 Bft)
13.11.2014 19:50 7,6 C 92 % 1014,4 hPa 0,0 l/m 0,0 km/h (0 Bft) SO 135 6,4 C 7,8 C 0,0 km/h (0 Bft)
13.11.2014 19:55 7,6 C 92 % 1014,3 hPa 0,0 l/m 0,0 km/h (0 Bft) SO 135 6,4 C 7,8 C 0,0 km/h (0 Bft)
13.11.2014 20:00 7,6 C 92 % 1014,3 hPa 0,0 l/m 0,0 km/h (0 Bft) SO 135 6,4 C 7,8 C 0,0 km/h (0 Bft)
13.11.2014 20:05 7,6 C 92 % 1014,3 hPa 0,0 l/m 0,0 km/h (0 Bft) SO 135 6,4 C 7,8 C 0,0 km/h (0 Bft)
13.11.2014 20:10 7,6 C 92 % 1014,3 hPa 0,0 l/m 0,0 km/h (0 Bft) SO 135 6,4 C 7,8 C 0,0 km/h (0 Bft)
13.11.2014 20:15 7,5 C 92 % 1014,4 hPa 0,0 l/m 0,0 km/h (0 Bft) SO 135 6,3 C 7,8 C 0,0 km/h (0 Bft)
13.11.2014 20:20 7,5 C 92 % 1014,4 hPa 0,0 l/m 0,0 km/h (0 Bft) SO 135 6,3 C 7,8 C 0,0 km/h (0 Bft)
13.11.2014 20:25 7,5 C 92 % 1014,4 hPa 0,0 l/m 0,0 km/h (0 Bft) SO 135 6,3 C 7,8 C 0,0 km/h (0 Bft)
13.11.2014 20:30 7,5 C 92 % 1014,4 hPa 0,0 l/m 0,0 km/h (0 Bft) SO 135 6,3 C 7,8 C 0,0 km/h (0 Bft)
13.11.2014 20:35 7,5 C 92 % 1014,5 hPa 0,0 l/m 0,0 km/h (0 Bft) SO 135 6,3 C 7,8 C 0,0 km/h (0 Bft)
13.11.2014 20:40 7,5 C 92 % 1014,5 hPa 0,0 l/m 0,0 km/h (0 Bft) SO 135 6,3 C 7,8 C 0,0 km/h (0 Bft)
13.11.2014 20:45 7,4 C 92 % 1014,5 hPa 0,0 l/m 0,0 km/h (0 Bft) SO 135 6,2 C 7,8 C 0,0 km/h (0 Bft)
13.11.2014 20:50 7,4 C 92 % 1014,5 hPa 0,0 l/m 0,0 km/h (0 Bft) SO 135 6,2 C 7,8 C 0,0 km/h (0 Bft)
13.11.2014 20:55 7,4 C 92 % 1014,4 hPa 0,0 l/m 0,0 km/h (0 Bft) SO 135 6,2 C 7,8 C 0,0 km/h (0 Bft)
13.11.2014 21:00 7,4 C 92 % 1014,4 hPa 0,0 l/m 0,0 km/h (0 Bft) SO 135 6,2 C 7,8 C 0,0 km/h (0 Bft)
13.11.2014 21:03 7,4 C 92 % 1014,4 hPa 0,0 l/m 0,0 km/h (0 Bft) SO 135 6,2 C 7,8 C 0,0 km/h (0 Bft)
13.11.2014 21:05 7,4 C 92 % 1014,4 hPa 0,0 l/m 0,0 km/h (0 Bft) SO 135 6,2 C 7,8 C 0,0 km/h (0 Bft)
13.11.2014 21:10 7,4 C 92 % 1014,4 hPa 0,0 l/m 0,0 km/h (0 Bft) SO 135 6,2 C 7,8 C 0,0 km/h (0 Bft)
13.11.2014 21:15 7,4 C 92 % 1014,7 hPa 0,0 l/m 0,0 km/h (0 Bft) SO 135 6,2 C 7,8 C 0,0 km/h (0 Bft)
13.11.2014 21:20 7,3 C 92 % 1014,7 hPa 0,0 l/m 0,0 km/h (0 Bft) SO 135 6,1 C 7,8 C 0,0 km/h (0 Bft)
13.11.2014 21:25 7,3 C 92 % 1014,7 hPa 0,0 l/m 0,0 km/h (0 Bft) SO 135 6,1 C 7,8 C 0,0 km/h (0 Bft)
13.11.2014 21:30 7,3 C 92 % 1014,7 hPa 0,0 l/m 0,0 km/h (0 Bft) SO 135 6,1 C 7,8 C 0,0 km/h (0 Bft)
13.11.2014 21:35 7,3 C 92 % 1014,9 hPa 0,0 l/m 0,0 km/h (0 Bft) SO 135 6,1 C 7,8 C 0,0 km/h (0 Bft)
13.11.2014 21:40 7,2 C 92 % 1014,9 hPa 0,0 l/m 0,0 km/h (0 Bft) SO 135 6,0 C 7,8 C 0,0 km/h (0 Bft)
13.11.2014 21:45 7,2 C 92 % 1014,9 hPa 0,0 l/m 0,0 km/h (0 Bft) SO 135 6,0 C 7,8 C 0,0 km/h (0 Bft)
13.11.2014 21:50 7,2 C 92 % 1014,9 hPa 0,0 l/m 0,0 km/h (0 Bft) SO 135 6,0 C 7,8 C 0,0 km/h (0 Bft)
13.11.2014 21:55 7,1 C 92 % 1014,8 hPa 0,0 l/m 0,0 km/h (0 Bft) SO 135 5,9 C 7,8 C 0,0 km/h (0 Bft)
13.11.2014 22:00 7,1 C 92 % 1014,8 hPa 0,0 l/m 0,0 km/h (0 Bft) SO 135 5,9 C 7,8 C 0,0 km/h (0 Bft)
13.11.2014 22:05 7,1 C 92 % 1014,8 hPa 0,0 l/m 0,0 km/h (0 Bft) SO 135 5,9 C 7,8 C 0,0 km/h (0 Bft)
13.11.2014 22:10 7,1 C 92 % 1014,8 hPa 0,0 l/m 0,0 km/h (0 Bft) SO 135 5,9 C 7,8 C 0,0 km/h (0 Bft)
13.11.2014 22:15 7,0 C 92 % 1014,8 hPa 0,0 l/m 0,0 km/h (0 Bft) SO 135 5,8 C 7,8 C 0,0 km/h (0 Bft)
13.11.2014 22:20 7,0 C 92 % 1014,8 hPa 0,0 l/m 0,0 km/h (0 Bft) SO 135 5,8 C 7,8 C 0,0 km/h (0 Bft)
13.11.2014 22:25 7,0 C 92 % 1014,8 hPa 0,0 l/m 0,0 km/h (0 Bft) SO 135 5,8 C 7,8 C 0,0 km/h (0 Bft)
13.11.2014 22:30 7,0 C 92 % 1014,8 hPa 0,0 l/m 0,0 km/h (0 Bft) SO 135 5,8 C 7,8 C 0,0 km/h (0 Bft)
13.11.2014 22:35 6,9 C 92 % 1014,8 hPa 0,0 l/m 0,0 km/h (0 Bft) SO 135 5,7 C 7,8 C 0,0 km/h (0 Bft)
13.11.2014 22:40 6,9 C 92 % 1014,8 hPa 0,0 l/m 0,0 km/h (0 Bft) SO 135 5,7 C 7,8 C 0,0 km/h (0 Bft)
13.11.2014 22:45 6,8 C 92 % 1014,8 hPa 0,0 l/m 0,0 km/h (0 Bft) SO 135 5,6 C 7,8 C 0,0 km/h (0 Bft)
13.11.2014 22:50 6,8 C 92 % 1014,8 hPa 0,0 l/m 0,0 km/h (0 Bft) SO 135 5,6 C 7,8 C 0,0 km/h (0 Bft)
13.11.2014 22:55 6,8 C 92 % 1014,6 hPa 0,0 l/m 0,0 km/h (0 Bft) SO 135 5,6 C 7,8 C 0,0 km/h (0 Bft)
13.11.2014 23:00 6,8 C 92 % 1014,6 hPa 0,0 l/m 0,0 km/h (0 Bft) SO 135 5,6 C 7,8 C 0,0 km/h (0 Bft)
13.11.2014 23:05 6,8 C 92 % 1014,6 hPa 0,0 l/m 0,0 km/h (0 Bft) SO 135 5,6 C 7,8 C 0,0 km/h (0 Bft)
13.11.2014 23:10 6,7 C 92 % 1014,6 hPa 0,0 l/m 0,0 km/h (0 Bft) SO 135 5,5 C 7,8 C 0,0 km/h (0 Bft)
13.11.2014 23:15 6,7 C 93 % 1014,3 hPa 0,0 l/m 0,0 km/h (0 Bft) SO 135 5,6 C 7,8 C 0,0 km/h (0 Bft)
13.11.2014 23:20 6,7 C 93 % 1014,3 hPa 0,0 l/m 0,0 km/h (0 Bft) SO 135 5,6 C 7,8 C 0,0 km/h (0 Bft)
13.11.2014 23:25 6,7 C 93 % 1014,3 hPa 0,0 l/m 0,0 km/h (0 Bft) SO 135 5,6 C 7,8 C 0,0 km/h (0 Bft)
13.11.2014 23:30 6,7 C 93 % 1014,3 hPa 0,0 l/m 0,0 km/h (0 Bft) SO 135 5,6 C 7,8 C 0,0 km/h (0 Bft)
13.11.2014 23:35 6,6 C 93 % 1014,2 hPa 0,0 l/m 0,0 km/h (0 Bft) SO 135 5,6 C 7,8 C 0,0 km/h (0 Bft)
13.11.2014 23:40 6,6 C 93 % 1014,2 hPa 0,0 l/m 0,0 km/h (0 Bft) SO 135 5,6 C 7,8 C 0,0 km/h (0 Bft)
13.11.2014 23:45 6,6 C 93 % 1014,2 hPa 0,0 l/m 0,0 km/h (0 Bft) SO 135 5,6 C 7,8 C 0,0 km/h (0 Bft)
13.11.2014 23:50 6,6 C 93 % 1014,2 hPa 0,0 l/m 0,0 km/h (0 Bft) SO 135 5,6 C 7,8 C 0,0 km/h (0 Bft)
13.11.2014 23:55 6,6 C 93 % 1014,3 hPa 0,0 l/m 0,0 km/h (0 Bft) SO 135 5,6 C 7,8 C 0,0 km/h (0 Bft)
13.11.2014 23:58 6,6 C 93 % 1014,3 hPa 0,0 l/m 0,0 km/h (0 Bft) SO 135 5,6 C 7,8 C 0,0 km/h (0 Bft)
_ Min-Zeit 23:58 01:05 00:10 - 23:58 - - 01:05 23:58 23:58
Minimum _ 6,6 C 84 % 1010,4 hPa - 0,0 km/h (0 Bft) - - 4,9 C 7,8 C 0,0 km/h (0 Bft)
_ Max-Zeit 12:25 09:30 21:50 23:58 23:58 - - 10:40 23:58 23:58
Maximum _ 10,6 C 95 % 1014,9 hPa 0,0 l/m 0,0 km/h
SO (0 Bft)
- - 8,8 C 7,8 C 0,0 km/h
SO (0 Bft)
Durchschnitt _ 7,8 C 90 % 1013,6 hPa #0,0 l/m 0,0 km/h (0 Bft) - - - 6,4 C 7,8 C 0,0 km/h (0 Bft)